Time,TemperatureF,DewpointF,PressureIn,WindDirection,WindDirectionDegrees,WindSpeedMPH,WindSpeedGustMPH,Humidity,HourlyPrecipIn,Conditions,Clouds,dailyrainin,SolarRadiationWatts/m^2,SoftwareType,DateUTC
2013-10-18 00:21:00,33.0,22.0,-100.00,North,11,5.0,16.0,64,0.00,,,0.00,1.000000,,2013-10-18 06:21:00,
2013-10-18 00:33:00,33.0,22.0,-100.00,North,11,5.0,16.0,64,0.00,,,0.00,1.000000,,2013-10-18 06:33:00,
2013-10-18 00:42:00,33.0,22.0,-100.00,North,11,5.0,16.0,64,0.00,,,0.00,1.000000,,2013-10-18 06:42:00,
2013-10-18 00:52:00,33.0,22.0,-100.00,North,11,5.0,16.0,64,0.00,,,0.00,1.000000,,2013-10-18 06:52:00,
2013-10-18 01:21:00,31.0,20.0,-100.00,North,350,5.0,14.0,62,0.00,,,0.00,1.000000,,2013-10-18 07:21:00,
2013-10-18 01:32:00,31.0,20.0,-100.00,North,350,5.0,14.0,62,0.00,,,0.00,1.000000,,2013-10-18 07:32:00,
2013-10-18 01:42:00,31.0,20.0,-100.00,North,350,5.0,14.0,62,0.00,,,0.00,1.000000,,2013-10-18 07:42:00,
2013-10-18 01:52:00,31.0,20.0,-100.00,North,350,5.0,14.0,62,0.00,,,0.00,1.000000,,2013-10-18 07:52:00,
2013-10-18 02:22:00,30.0,20.0,-100.00,NNE,14,7.0,10.0,67,0.00,,,0.00,1.000000,,2013-10-18 08:22:00,
2013-10-18 02:31:00,30.0,20.0,-100.00,NNE,14,7.0,10.0,67,0.00,,,0.00,1.000000,,2013-10-18 08:31:00,
2013-10-18 02:42:00,30.0,20.0,-100.00,NNE,14,7.0,10.0,67,0.00,,,0.00,1.000000,,2013-10-18 08:42:00,
2013-10-18 02:52:00,30.0,20.0,-100.00,NNE,14,7.0,10.0,67,0.00,,,0.00,1.000000,,2013-10-18 08:52:00,
2013-10-18 03:21:00,29.0,19.0,-100.00,North,8,8.0,13.0,67,0.00,,,0.00,1.000000,,2013-10-18 09:21:00,
2013-10-18 03:33:00,29.0,19.0,-100.00,North,8,8.0,13.0,67,0.00,,,0.00,1.000000,,2013-10-18 09:33:00,
2013-10-18 03:43:00,29.0,19.0,-100.00,North,8,8.0,13.0,67,0.00,,,0.00,1.000000,,2013-10-18 09:43:00,
2013-10-18 03:53:00,29.0,19.0,-100.00,North,8,8.0,13.0,67,0.00,,,0.00,1.000000,,2013-10-18 09:53:00,
2013-10-18 04:23:00,26.0,19.0,-100.00,NNE,13,6.0,15.0,75,0.00,,,0.00,1.000000,,2013-10-18 10:23:00,
2013-10-18 04:33:00,26.0,19.0,-100.00,NNE,13,6.0,15.0,75,0.00,,,0.00,1.000000,,2013-10-18 10:33:00,
2013-10-18 04:42:00,26.0,19.0,-100.00,NNE,13,6.0,15.0,75,0.00,,,0.00,1.000000,,2013-10-18 10:42:00,
2013-10-18 04:53:00,26.0,19.0,-100.00,NNE,13,6.0,15.0,75,0.00,,,0.00,1.000000,,2013-10-18 10:53:00,
2013-10-18 05:22:00,23.0,18.0,-100.00,NNE,16,8.0,10.0,82,0.00,,,0.00,1.000000,,2013-10-18 11:22:00,
2013-10-18 05:33:00,23.0,18.0,-100.00,NNE,16,8.0,10.0,82,0.00,,,0.00,1.000000,,2013-10-18 11:33:00,
2013-10-18 05:42:00,23.0,18.0,-100.00,NNE,16,8.0,10.0,82,0.00,,,0.00,1.000000,,2013-10-18 11:42:00,
2013-10-18 05:52:00,23.0,18.0,-100.00,NNE,16,8.0,10.0,82,0.00,,,0.00,1.000000,,2013-10-18 11:52:00,
2013-10-18 06:21:00,25.0,18.0,-100.00,NE,52,4.0,14.0,74,0.00,,,0.00,0.000000,,2013-10-18 12:21:00,
2013-10-18 06:32:00,25.0,18.0,-100.00,NE,52,4.0,14.0,74,0.00,,,0.00,0.000000,,2013-10-18 12:32:00,
2013-10-18 06:42:00,25.0,18.0,-100.00,NE,52,4.0,14.0,74,0.00,,,0.00,0.000000,,2013-10-18 12:42:00,
2013-10-18 06:52:00,25.0,18.0,-100.00,NE,52,4.0,14.0,74,0.00,,,0.00,0.000000,,2013-10-18 12:52:00,
2013-10-18 07:22:00,23.0,17.0,-100.00,NNW,335,1.0,9.0,78,0.00,,,0.00,1.000000,,2013-10-18 13:22:00,
2013-10-18 07:32:00,23.0,17.0,-100.00,NNW,335,1.0,9.0,78,0.00,,,0.00,1.000000,,2013-10-18 13:32:00,
2013-10-18 07:42:00,23.0,17.0,-100.00,NNW,335,1.0,9.0,78,0.00,,,0.00,1.000000,,2013-10-18 13:42:00,
2013-10-18 07:52:00,23.0,17.0,-100.00,NNW,335,1.0,9.0,78,0.00,,,0.00,1.000000,,2013-10-18 13:52:00,
2013-10-18 08:21:00,23.0,17.0,-100.00,NNW,342,3.0,5.0,78,0.00,,,0.00,3.000000,,2013-10-18 14:21:00,
2013-10-18 08:32:00,23.0,17.0,-100.00,NNW,342,3.0,5.0,78,0.00,,,0.00,3.000000,,2013-10-18 14:32:00,
2013-10-18 08:42:00,23.0,17.0,-100.00,NNW,342,3.0,5.0,78,0.00,,,0.00,3.000000,,2013-10-18 14:42:00,
2013-10-18 08:52:00,23.0,17.0,-100.00,NNW,342,3.0,5.0,78,0.00,,,0.00,3.000000,,2013-10-18 14:52:00,
2013-10-18 10:42:00,34.0,17.0,-100.00,NNE,32,6.0,11.0,50,-99.99,,,0.00,29.000000,,2013-10-18 16:42:00,
2013-10-18 10:53:00,34.0,17.0,-100.00,NNE,32,6.0,11.0,50,-99.99,,,0.00,29.000000,,2013-10-18 16:53:00,
2013-10-18 11:22:00,37.0,17.0,-100.00,NNE,29,5.0,10.0,43,0.00,,,0.00,40.000000,,2013-10-18 17:22:00,
2013-10-18 11:33:00,37.0,17.0,-100.00,NNE,29,5.0,10.0,43,0.00,,,0.00,40.000000,,2013-10-18 17:33:00,
2013-10-18 11:42:00,37.0,17.0,-100.00,NNE,29,5.0,10.0,43,0.00,,,0.00,40.000000,,2013-10-18 17:42:00,
2013-10-18 11:52:00,37.0,17.0,-100.00,NNE,29,5.0,10.0,43,0.00,,,0.00,40.000000,,2013-10-18 17:52:00,
2013-10-18 12:21:00,39.0,17.0,-100.00,NE,34,3.0,9.0,40,0.00,,,-99.99,274.000000,,2013-10-18 18:21:00,
2013-10-18 12:32:00,39.0,17.0,-100.00,NE,34,3.0,9.0,40,0.00,,,-99.99,274.000000,,2013-10-18 18:32:00,
2013-10-18 12:42:00,39.0,17.0,-100.00,NE,34,3.0,9.0,40,0.00,,,-99.99,274.000000,,2013-10-18 18:42:00,
2013-10-18 12:52:00,39.0,17.0,-100.00,NE,34,3.0,9.0,40,0.00,,,-99.99,274.000000,,2013-10-18 18:52:00,
2013-10-18 13:21:00,41.0,19.0,-100.00,South,187,6.0,12.0,41,0.00,,,0.00,564.000000,,2013-10-18 19:21:00,
2013-10-18 13:32:00,41.0,19.0,-100.00,South,187,6.0,12.0,41,0.00,,,0.00,564.000000,,2013-10-18 19:32:00,
2013-10-18 13:42:00,41.0,19.0,-100.00,South,187,6.0,12.0,41,0.00,,,0.00,564.000000,,2013-10-18 19:42:00,
2013-10-18 13:52:00,41.0,19.0,-100.00,South,187,6.0,12.0,41,0.00,,,0.00,564.000000,,2013-10-18 19:52:00,
2013-10-18 14:22:00,43.0,19.0,-100.00,SSW,205,7.0,11.0,38,0.00,,,0.00,613.000000,,2013-10-18 20:22:00,
2013-10-18 14:32:00,43.0,19.0,-100.00,SSW,205,7.0,11.0,38,0.00,,,0.00,613.000000,,2013-10-18 20:32:00,
2013-10-18 14:42:00,43.0,19.0,-100.00,SSW,205,7.0,11.0,38,0.00,,,0.00,613.000000,,2013-10-18 20:42:00,
2013-10-18 14:52:00,43.0,19.0,-100.00,SSW,205,7.0,11.0,38,0.00,,,0.00,613.000000,,2013-10-18 20:52:00,
2013-10-18 15:22:00,43.0,17.0,-100.00,South,174,6.0,12.0,35,0.00,,,0.00,564.000000,,2013-10-18 21:22:00,
2013-10-18 15:34:00,43.0,17.0,-100.00,South,174,6.0,12.0,35,0.00,,,0.00,564.000000,,2013-10-18 21:34:00,
2013-10-18 15:44:00,43.0,17.0,-100.00,South,174,6.0,12.0,35,0.00,,,0.00,564.000000,,2013-10-18 21:44:00,
2013-10-18 15:54:00,43.0,17.0,-100.00,South,174,6.0,12.0,35,0.00,,,0.00,564.000000,,2013-10-18 21:54:00,
2013-10-18 16:24:00,46.0,17.0,-100.00,SE,141,4.0,12.0,31,0.00,,,0.00,472.000000,,2013-10-18 22:24:00,
2013-10-18 16:33:00,46.0,17.0,-100.00,SE,141,4.0,12.0,31,0.00,,,0.00,472.000000,,2013-10-18 22:33:00,
2013-10-18 16:43:00,46.0,17.0,-100.00,SE,141,4.0,12.0,31,0.00,,,0.00,472.000000,,2013-10-18 22:43:00,
2013-10-18 16:54:00,46.0,17.0,-100.00,SE,141,4.0,12.0,31,0.00,,,0.00,472.000000,,2013-10-18 22:54:00,
2013-10-18 17:23:00,47.0,16.0,-100.00,SSE,152,6.0,10.0,29,0.00,,,0.00,334.000000,,2013-10-18 23:23:00,
2013-10-18 17:33:00,47.0,16.0,-100.00,SSE,152,6.0,10.0,29,0.00,,,0.00,334.000000,,2013-10-18 23:33:00,
2013-10-18 17:42:00,47.0,16.0,-100.00,SSE,152,6.0,10.0,29,0.00,,,0.00,334.000000,,2013-10-18 23:42:00,
2013-10-18 17:53:00,47.0,16.0,-100.00,SSE,152,6.0,10.0,29,0.00,,,0.00,334.000000,,2013-10-18 23:53:00,
2013-10-18 18:22:00,41.0,17.0,-100.00,WSW,253,1.0,8.0,37,0.00,,,0.00,146.000000,,2013-10-19 00:22:00,
2013-10-18 18:32:00,41.0,17.0,-100.00,WSW,253,1.0,8.0,37,0.00,,,0.00,146.000000,,2013-10-19 00:32:00,
2013-10-18 18:42:00,41.0,17.0,-100.00,WSW,253,1.0,8.0,37,0.00,,,0.00,146.000000,,2013-10-19 00:42:00,
2013-10-18 18:52:00,41.0,17.0,-100.00,WSW,253,1.0,8.0,37,0.00,,,0.00,146.000000,,2013-10-19 00:52:00,
2013-10-18 19:42:00,31.0,18.0,-100.00,NNW,329,1.0,5.0,57,0.00,,,0.00,7.000000,,2013-10-19 01:42:00,
2013-10-18 19:52:00,31.0,18.0,-100.00,NNW,329,1.0,5.0,57,0.00,,,0.00,7.000000,,2013-10-19 01:52:00,
2013-10-18 20:22:00,29.0,17.0,-100.00,North,355,2.0,4.0,60,0.00,,,0.00,1.000000,,2013-10-19 02:22:00,
2013-10-18 20:32:00,29.0,17.0,-100.00,North,355,2.0,4.0,60,0.00,,,0.00,1.000000,,2013-10-19 02:32:00,
2013-10-18 20:42:00,29.0,17.0,-100.00,North,355,2.0,4.0,60,0.00,,,0.00,1.000000,,2013-10-19 02:42:00,
2013-10-18 20:52:00,29.0,17.0,-100.00,North,355,2.0,4.0,60,0.00,,,0.00,1.000000,,2013-10-19 02:52:00,
2013-10-18 21:23:00,28.0,19.0,-100.00,NW,311,3.0,5.0,68,0.00,,,0.00,1.000000,,2013-10-19 03:23:00,
2013-10-18 21:34:00,28.0,19.0,-100.00,NW,311,3.0,5.0,68,0.00,,,0.00,1.000000,,2013-10-19 03:34:00,
2013-10-18 21:44:00,28.0,19.0,-100.00,NW,311,3.0,5.0,68,0.00,,,0.00,1.000000,,2013-10-19 03:44:00,
2013-10-18 21:54:00,28.0,19.0,-100.00,NW,311,3.0,5.0,68,0.00,,,0.00,1.000000,,2013-10-19 03:54:00,
2013-10-18 22:24:00,26.0,19.0,-100.00,North,0,3.0,5.0,74,0.00,,,0.00,0.000000,,2013-10-19 04:24:00,
2013-10-18 22:34:00,26.0,19.0,-100.00,North,0,3.0,5.0,74,0.00,,,0.00,0.000000,,2013-10-19 04:34:00,
2013-10-18 22:43:00,26.0,19.0,-100.00,North,0,3.0,5.0,74,0.00,,,0.00,0.000000,,2013-10-19 04:43:00,
2013-10-18 22:54:00,26.0,19.0,-100.00,North,0,3.0,5.0,74,0.00,,,0.00,0.000000,,2013-10-19 04:54:00,
2013-10-18 23:22:00,27.0,19.0,-100.00,NW,322,2.0,5.0,72,0.00,,,0.00,1.000000,,2013-10-19 05:22:00,
2013-10-18 23:34:00,27.0,19.0,-100.00,NW,322,2.0,5.0,72,0.00,,,0.00,1.000000,,2013-10-19 05:34:00,
2013-10-18 23:42:00,27.0,19.0,-100.00,NW,322,2.0,5.0,72,0.00,,,0.00,1.000000,,2013-10-19 05:42:00,
2013-10-18 23:52:00,27.0,19.0,-100.00,NW,322,2.0,5.0,72,0.00,,,0.00,1.000000,,2013-10-19 05:52:00,